This demonstration page uses our WeatherBlox Daily Observations layout. Learn more.

Left ArrowRight Arrow

Hourly Observations for February 4, 2022

Temp ( °F °C ) Dew Point ( °F °C ) Humidity (%) Winds ( mph kmh ) Pressure ( in mb ) Visibility ( mi km ) Precip ( " mm )
12:53 am 00:53 Clear 5 -15 -1 -18.3 76 76 ENE 9 15 30.52 1033 10 16 0.00 0.00
1:53 am 01:53 Clear 4 -15.6 -1 -18.3 80 80 E 9 15 30.48 1032 10 16 0.00 0.00
2:53 am 02:53 Clear 2 -16.7 -3 -19.4 80 80 E 8 13 30.47 1032 10 16 0.00 0.00
3:53 am 03:53 Clear -2 -18.9 -6 -21.1 83 83 Calm 30.45 1031 10 16 0.00 0.00
4:53 am 04:53 Clear 0 -17.8 -4 -20 83 83 ENE 6 9 30.43 1030 10 16 0.00 0.00
5:53 am 05:53 Clear -2 -18.9 -6 -21.1 83 83 Calm 30.41 1030 10 16 0.00 0.00
6:53 am 06:53 Clear -3 -19.4 -7 -21.7 82 82 Calm 30.39 1029 10 16 0.00 0.00
7:53 am 07:53 Sunny -2 -18.9 -7 -21.7 79 79 E 5 7 30.36 1028 10 16 0.00 0.00
8:53 am 08:53 Sunny 2 -16.7 -3 -19.4 80 80 E 6 9 30.30 1026 10 16 0.00 0.00
9:53 am 09:53 Sunny 5 -15 -1 -18.3 76 76 Calm 30.26 1025 10 16 0.00 0.00
10:53 am 10:53 Sunny 12 -11.1 3 -16.1 67 67 WNW 3 6 30.22 1023 10 16 0.00 0.00
11:53 am 11:53 Sunny 19 -7.2 8 -13.3 62 62 Calm 30.16 1022 10 16 0.00 0.00
12:53 pm 12:53 Sunny 25 -3.9 14 -10 63 63 VRB 5 7 30.12 1020 10 16 0.00 0.00
1:53 pm 13:53 Sunny 35 1.7 25 -3.9 67 67 WSW 12 19 30.07 1018 10 16 0.00 0.00
2:53 pm 14:53 Sunny 40 4.4 30 -1.1 68 68 SW 15 24 30.03 1017 10 16 0.00 0.00
3:53 pm 15:53 Sunny 40 4.4 31 -0.6 70 70 WSW 15 24 30.04 1017 10 16 0.00 0.00
4:53 pm 16:53 Mostly Sunny 40 4.4 31 -0.6 70 70 SW 10 17 30.02 1017 10 16 0.00 0.00
5:53 pm 17:53 Mostly Cloudy 39 3.9 31 -0.6 73 73 SW 16 26 29.98 1015 10 16 0.00 0.00
6:53 pm 18:53 Cloudy 40 4.4 30 -1.1 68 68 SW 31 50 29.93 1014 10 16 0.00 0.00
7:53 pm 19:53 Clear 40 4.4 30 -1.1 68 68 WSW 26 43 29.93 1014 10 16 0.00 0.00
8:53 pm 20:53 Mostly Clear 40 4.4 27 -2.8 60 60 WSW 26 43 29.94 1014 10 16 0.00 0.00
9:53 pm 21:53 Clear 37 2.8 26 -3.3 65 65 WSW 23 37 29.94 1014 10 16 0.00 0.00
10:53 pm 22:53 Clear 35 1.7 26 -3.3 70 70 SW 17 28 29.94 1014 10 16 0.00 0.00
11:53 pm 23:53 Clear 35 1.7 26 -3.3 70 70 SW 21 33 29.93 1013 10 16 0.00 0.00

Powered by AerisWeather